Satellite-Ground Cal/Val Site Overpasses Predictions

Prediction of Satellite NPP Overpassing Cal/Val Site: Antarctic Dome C

Ground Cal/Val Site Location: Latitude: -75.10, Longitude: 123.35; Satellite-Ground Site NADIR distance within 100 km.

Table of predicted overpasses for the next 14.0 days since TLE Epoch: 8/11/2016
Interval Starting Time Ending Time Minimum Distance Time Minimum Distance (km)
1 08/12/2016 14:43:00 08/12/2016 14:43:25 08/12/2016 14:43:13 52.52
2 08/13/2016 07:44:40 08/13/2016 07:45:00 08/13/2016 07:44:50 70.68
3 08/14/2016 07:25:47 08/14/2016 07:26:14 08/14/2016 07:26:01 37.33
4 08/16/2016 15:08:12 08/16/2016 15:08:21 08/16/2016 15:08:17 94.23
5 08/17/2016 14:49:11 08/17/2016 14:49:40 08/17/2016 14:49:25 17.24
6 08/19/2016 07:32:00 08/19/2016 07:32:29 08/19/2016 07:32:15 1.51
7 08/22/2016 14:55:25 08/22/2016 14:55:54 08/22/2016 14:55:39 19.17
8 08/23/2016 14:36:43 08/23/2016 14:36:57 08/23/2016 14:36:50 87.77
9 08/24/2016 07:38:14 08/24/2016 07:38:41 08/24/2016 07:38:27 35.04
